sat.trackr.live / text

‹ back to catalog

UNKNOWN

NORAD 81219

UNKNOWN UNKNOWN UNKNOWN

§ Identity

Operator
Country
Launch date
Launch site
Launch vehicle
Mass (kg)
RCS (m²)

External: N2YO · Heavens-Above

§ Orbital elements

Epoch: 2026-05-20T23:58:56.579808Z

Period
104.20 min
Inclination
82.9258°
Eccentricity
0.0023347
Mean motion
13.81957582 rev/d
Perigee alt
939.8 km
Apogee alt
974.1 km
Semi-major
7,335.1 km
B*
2.9275e-4
RAAN
246.4847°
Arg perigee
126.2327°
Mean anomaly
234.0996°
Rev number
62,951

§ Raw data

UNKNOWN1 81219U          26140.99926597  .00000330  00000+0  29275-3 0  99932 81219  82.9258 246.4847 0023347 126.2327 234.0996 13.81957582629519

JSON: /api/v1/satellites/81219 · /tle

For live sub-satellite position, see the globe view (requires WebGL).

§ Visibility from observer

Set your observer location to see the next 7 days of passes ≥ 10°. The values pass through the URL so the page stays shareable.

No JS? Fill the form by hand. The geolocation button needs JavaScript.